Terminal Aerodrome Forecast
Issued by NWS

Current Version | Previous Version | Graphics & Text | Print | Product List | Glossary On
Versions: 1 2 3 4 5 6 7 8 9 10 11 12 13 14 15 16
833
FTUS41 KILN 031314 AAA
TAFLCK
TAF AMD
KLCK 031314Z 0313/0412 19012G21KT P6SM SCT025 OVC050
      TEMPO 0313/0315 BKN025
     FM031500 22014G24KT P6SM SCT025
     FM031700 24018G30KT P6SM BKN035
     FM040500 25013G23KT P6SM OVC025
     FM041000 26012KT P6SM OVC018=

USA.gov is the U.S. government's official web portal to all federal, state and local government web resources and services.